Cloud_Cover
2 0 2 5 8 14 5 5 44 5 0 0 0 0 0 0 2 3 3 0 0 0 0 0 3 2 0 0 0 0 0 5 5 2 5 0 0 0 0 0 0 0 0 0
0 5 5 17 6 34 20 50 5 2 0 0 0 0 0 3 0 0 4 3 0 5 0 8 5 0 49 0 0 0 3 0 0 0 1 0 0 0 0 0 0 0 0 0
0 0 5 5 5 25 30 5 1 4 0 0 0 0 0 0 0 4 5 5 5 16 0 9 70 5 20 0 0 0 0 5 5 0 15 32 0 0 0 0 0 0 0 0
0 2 0 4 5 5 5 5 5 0 5 0 0 0 0 1 5 5 5 5 1 5 1 0 8 26 60 1 0 0 0 1 5 0 0 5 5 0 0 0 0 0 0 0
2 5 5 5 5 5 5 5 4 1 3 4 0 0 0 4 5 5 5 5 34 29 13 0 3 25 71 14 8 0 0 0 25 22 4 0 0 1 0 0 0 0 0 0
5 5 5 5 5 5 5 5 5 0 5 5 3 0 1 4 5 5 5 41 100 87 30 4 0 9 90 6 81 0 0 0 0 5 6 30 5 1 4 1 0 0 0 0
5 5 5 5 6 5 5 3 2 2 0 0 1 5 2 4 3 5 61 100 100 58 24 5 3 3 64 32 9 25 0 0 2 5 100 83 92 83 5 2 2 3 1 2
5 5 5 5 37 6 5 5 2 4 0 0 8 5 0 3 2 5 26 100 100 96 93 4 5 17 28 40 21 21 2 0 5 5 46 82 72 6 54 5 5 5 5 5
50 43 6 27 14 5 27 8 4 2 6 0 3 20 5 2 8 11 48 100 100 100 99 7 5 10 75 100 6 1 4 0 11 30 26 63 50 15 73 96 100 50 6 5
99 97 50 40 29 22 96 2 1 5 41 32 1 45 3 6 84 100 97 92 100 100 100 87 64 4 7 24 22 4 2 5 5 24 92 93 88 90 60 63 98 98 83 5
60 72 39 32 86 100 5 5 4 5 26 99 59 78 72 79 62 100 99 100 100 100 100 100 100 5 5 5 18 5 3 5 5 5 33 79 65 47 84 17 81 99 67 60
100 100 96 8 44 8 75 5 2 42 55 92 97 85 100 89 100 100 100 100 100 100 100 100 100 48 7 5 8 5 5 5 24 69 73 82 85 94 100 96 36 74 85 93
67 62 95 100 92 14 32 9 5 5 24 41 95 60 100 100 100 100 100 100 100 100 100 100 100 100 44 7 37 5 5 39 100 99 100 99 99 82 89 76 100 100 68 92
38 100 93 87 5 82 100 5 5 15 93 60 94 37 66 63 100 98 96 100 100 100 100 100 100 71 99 5 5 25 99 100 100 100 100 100 100 95 96 76 94 100 100 100
12 54 100 100 86 32 100 100 5 59 97 79 8 74 35 83 74 97 69 85 82 100 100 98 100 57 42 29 11 94 100 100 100 98 100 100 100 100 98 94 74 100 100 100
17 96 82 23 41 6 89 4 4 5 70 5 15 5 100 91 100 100 100 59 99 94 97 100 100 100 100 97 79 100 100 100 100 100 100 96 100 100 96 100 90 83 86 100
59 15 15 24 44 48 93 5 3 5 93 24 66 89 73 72 100 100 99 96 99 100 98 100 100 100 100 87 82 99 100 100 100 100 100 100 100 100 100 100 100 100 96 100
77 100 20 44 87 4 89 3 5 4 38 5 21 100 100 99 93 100 100 71 100 100 87 100 100 82 100 100 98 89 100 100 100 100 100 99 99 100 100 100 100 100 95 99
41 100 86 87 59 6 5 74 22 5 5 6 83 100 100 92 92 39 100 100 100 100 82 100 100 99 100 100 93 100 100 100 100 100 100 100 99 100 100 100 100 100 100 98
34 6 14 51 44 78 77 100 24 5 24 5 84 100 100 82 99 23 93 100 96 100 90 100 100 100 100 100 100 100 100 100 100 100 100 100 100 99 82 100 100 100 98 97
100 51 100 77 95 5 8 100 89 71 64 17 74 74 99 87 100 100 100 100 100 100 99 98 100 100 100 100 100 100 100 100 100 100 100 100 100 99 86 98 100 100 100 100
100 100 100 74 100 29 2 100 100 40 30 44 19 60 91 99 100 100 100 100 100 100 89 100 100 100 100 100 100 100 100 100 100 100 100 100 100 99 100 97 100 100 100 100
100 100 100 35 4 2 5 29 56 67 5 11 10 65 100 100 100 100 71 100 100 100 96 91 100 100 100 100 100 100 100 100 100 100 100 100 100 98 83 95 100 100 100 100
100 100 78 46 7 5 7 100 87 11 5 5 12 90 92 96 84 100 93 100 100 100 100 66 100 100 100 100 100 100 100 100 100 100 100 100 100 100 81 100 52 92 100 100
100 100 38 5 78 7 100 100 20 29 5 5 5 5 82 93 95 100 100 100 100 100 100 100 100 100 100 100 100 94 100 100 100 100 100 100 100 100 100 73 5 56 93 98
100 99 87 6 100 99 100 20 14 5 5 5 5 5 5 10 33 80 100 100 100 100 96 100 100 100 100 100 100 93 99 100 100 100 100 100 100 100 100 100 76 94 100 99